ORBCOMM FM19

Last updated on Sun Jun 21 2026 00:03:16 GMT+0000 (Coordinated Universal Time)

1 25415U 98046C 26171.47310161 .00000477 00000+0 19693-3 0 9992 2 25415 44.9926 227.9426 0004546 294.8894 79.0113 14.39500175457257
UTC large
Height (km)
Speed (km/s)
/
Latitude / Longitude
Inclination (degrees)
Orbital Period (minutes)
Azimuth
Elevation
Range (km)
Doppler Factor

Next 0 passes for location: London (51.5072 / 0.1276)

No passes found over London.
ORBCOMM FM19